Regional Weather Roundup
Issued by NWS

Home | Current Version | Previous Version | Graphics & Text | Print | Product List | Glossary Off
Versions: 1 2 3 4 5 6 7 8 9 10 11 12 13 14 15 16 17 18 19 20 21 22 23 24 25 26 27 28 29 30 31 32 33 34 35 36 37 38 39 40 41 42 43 44 45 46 47 48 49 50

000
ASUS43 KTOP 190059
RWRKS

WEATHER ROUNDUP FOR KANSAS
NATIONAL WEATHER SERVICE GOODLAND KS
700 PM CST SAT NOV 18 2017

NOTE:  "FAIR" INDICATES FEW OR NO CLOUDS BELOW 12,000 FEET WITH NO
SIGNIFICANT WEATHER AND/OR OBSTRUCTIONS TO VISIBILITY.

KSZ001>006-013>018-027>032-041>047-190200-
NORTHWEST KANSAS

CITY           SKY/WX    TMP DP  RH WIND       PRES   REMARKS
GOODLAND       CLEAR     30  14  51 W3        30.24R
HAYS           CLEAR     37  22  54 W6        30.24R
HILL CITY      CLEAR     38  22  52 NW9       30.24R
RUSSELL        CLEAR     38  23  55 NW7       30.22R
$$

KSZ061>065-074>080-084>089-190200-
SOUTHWEST KANSAS

CITY           SKY/WX    TMP DP  RH WIND       PRES   REMARKS
DODGE CITY     CLEAR     35  17  47 NW9       30.27R
GARDEN CITY    CLEAR     40  16  37 NW7       30.27R
GREAT BEND     CLEAR     37  23  56 W6        30.25R
LIBERAL        CLEAR     32  13  45 NW7       30.30R
$$

KSZ066>073-081>083-090>101-190200-
SOUTHEAST KANSAS

CITY           SKY/WX    TMP DP  RH WIND       PRES   REMARKS
CHANUTE        CLEAR     44  31  60 NW8       30.16R
COFFEYVILLE    CLEAR     45  33  63 NW5       30.16R
HUTCHINSON     CLEAR     44  24  45 NW9       30.22R
MEDICINE LODGE   N/A     42  22  44 N9        30.24R
NEWTON         CLEAR     42  24  49 NW8       30.21R
PARSONS        CLEAR     41  31  67 NW3       30.17R
WICHITA INTL   CLEAR     44  26  49 NW8       30.21R
WICHITA JABRA  CLEAR     44  25  47 NW9       30.20R
WICHITA MCCONL CLEAR     48  23  37 NW7       30.20R
WINFIELD       CLEAR     40  26  57 NW6       30.22R
$$

KSZ007>012-019>026-033>040-048>060-102>105-190200-
NORTHEAST KANSAS

CITY           SKY/WX    TMP DP  RH WIND       PRES   REMARKS
CONCORDIA      CLEAR     42  25  50 NW8       30.20R
EMPORIA        CLEAR     44  26  49 NW10      30.17R
LAWRENCE       CLEAR     39  30  70 NW10      30.14R WCI  32
MANHATTAN      CLEAR     43  27  53 CALM      30.18R
OLATHE IND     CLEAR     44  30  57 NW13      30.12R
OLATHE EXE     CLEAR     45  29  53 NW15      30.10R
SALINA         CLEAR     44  25  47 NW9       30.21R
TOPEKA BILLARD CLEAR     45  29  53 NW10      30.15R
TOPEKA FORBES  CLEAR     44  29  55 NW13      30.14R
$$




USA.gov is the U.S. government's official web portal to all federal, state and local government web resources and services.